Visibility
15.0 15.0 15.0 15.0 15.0 15.0 15.0 15.0 15.0 15.0 15.0 15.0 15.0 7.1 1.9 15.0 15.0 15.0 15.0 15.0 15.0 15.0 15.0 15.0 15.0 15.0 15.0 15.0 15.0 15.0 15.0 15.0
15.0 15.0 15.0 15.0 15.0 15.0 15.0 15.0 15.0 15.0 15.0 15.0 15.0 3.6 2.0 1.9 15.0 15.0 15.0 15.0 15.0 15.0 15.0 15.0 15.0 15.0 15.0 15.0 15.0 15.0 15.0 15.0
15.0 15.0 15.0 15.0 15.0 15.0 15.0 15.0 15.0 15.0 15.0 15.0 15.0 15.0 9.3 3.5 2.2 10.8 15.0 15.0 15.0 15.0 15.0 15.0 15.0 13.4 15.0 15.0 15.0 15.0 15.0 15.0
15.0 15.0 15.0 15.0 15.0 15.0 15.0 15.0 15.0 15.0 15.0 15.0 15.0 15.0 15.0 11.2 3.9 2.3 4.4 8.8 15.0 15.0 15.0 15.0 15.0 7.5 11.5 15.0 15.0 15.0 15.0 15.0
15.0 15.0 15.0 15.0 15.0 15.0 15.0 15.0 15.0 15.0 15.0 15.0 15.0 15.0 15.0 15.0 7.0 2.0 2.0 4.0 12.8 3.4 15.0 15.0 15.0 6.7 14.9 13.3 15.0 15.0 15.0 15.0
15.0 15.0 15.0 15.0 15.0 15.0 15.0 15.0 15.0 15.0 15.0 15.0 15.0 15.0 15.0 15.0 15.0 6.0 3.4 2.3 1.7 15.0 15.0 15.0 15.0 15.0 8.7 8.7 15.0 15.0 15.0 15.0
15.0 15.0 15.0 15.0 15.0 15.0 0.3 15.0 15.0 15.0 15.0 15.0 15.0 7.1 1.2 15.0 15.0 6.9 3.2 6.5 0.7 3.5 15.0 13.2 15.0 15.0 15.0 7.4 15.0 8.8 15.0 15.0
15.0 15.0 15.0 15.0 15.0 15.0 9.2 15.0 2.8 15.0 15.0 15.0 15.0 15.0 11.0 15.0 15.0 15.0 11.2 2.2 1.8 1.3 6.2 15.0 15.0 15.0 15.0 12.8 7.2 13.9 15.0 15.0
15.0 15.0 15.0 15.0 15.0 15.0 15.0 15.0 6.2 1.7 2.3 11.4 15.0 15.0 15.0 15.0 15.0 15.0 15.0 3.5 3.9 1.6 1.9 4.9 15.0 13.0 3.6 15.0 5.1 7.8 7.3 15.0
15.0 15.0 15.0 15.0 15.0 15.0 15.0 15.0 11.2 1.0 0.1 5.1 10.0 14.6 15.0 15.0 15.0 15.0 15.0 15.0 14.2 6.5 2.0 0.8 1.3 4.7 3.8 7.5 14.8 8.2 11.4 15.0
15.0 15.0 15.0 15.0 15.0 15.0 15.0 15.0 7.7 6.2 0.1 1.6 6.4 7.6 15.0 15.0 15.0 15.0 15.0 15.0 14.7 15.0 4.1 1.5 1.1 1.1 3.1 3.2 3.8 5.4 7.3 11.1
15.0 15.0 15.0 15.0 15.0 15.0 15.0 15.0 15.0 6.2 2.5 0.5 6.3 7.8 9.6 15.0 15.0 15.0 15.0 15.0 15.0 15.0 15.0 15.0 15.0 1.8 0.8 2.6 3.8 5.1 7.1 7.7
15.0 15.0 15.0 15.0 15.0 15.0 15.0 15.0 15.0 13.3 14.8 6.9 5.9 15.0 14.8 12.4 15.0 15.0 15.0 15.0 15.0 15.0 14.9 4.8 5.1 1.6 0.5 1.1 0.2 2.1 9.1 5.9
15.0 15.0 15.0 15.0 15.0 15.0 15.0 15.0 15.0 12.6 13.3 15.0 7.0 5.3 14.9 15.0 15.0 15.0 15.0 15.0 15.0 11.2 2.7 1.8 2.2 0.6 1.5 10.7 1.2 0.3 2.0 9.5
15.0 15.0 15.0 15.0 15.0 15.0 15.0 15.0 15.0 15.0 14.9 10.5 15.0 11.9 15.0 14.7 15.0 15.0 15.0 14.7 14.6 8.3 2.8 1.4 1.3 2.5 2.9 3.0 11.3 1.1 3.8 4.7
15.0 15.0 15.0 15.0 15.0 15.0 15.0 15.0 15.0 15.0 15.0 15.0 15.0 15.0 13.2 14.9 15.0 7.0 10.3 13.6 14.2 4.6 5.0 4.2 2.9 4.4 3.8 1.2 2.6 2.0 1.5 3.4
15.0 15.0 15.0 15.0 15.0 15.0 15.0 15.0 15.0 15.0 15.0 15.0 15.0 15.0 15.0 15.0 15.0 15.0 15.0 15.0 15.0 9.5 9.8 6.1 15.0 9.6 15.0 15.0 6.8 9.9 7.4 1.2
15.0 15.0 15.0 15.0 15.0 15.0 15.0 15.0 15.0 15.0 15.0 15.0 15.0 15.0 15.0 15.0 15.0 15.0 15.0 15.0 15.0 15.0 15.0 12.3 10.3 7.1 14.4 15.0 13.9 5.5 2.9 2.8
15.0 15.0 15.0 15.0 15.0 15.0 15.0 15.0 15.0 15.0 15.0 15.0 15.0 15.0 15.0 15.0 15.0 15.0 15.0 15.0 15.0 15.0 15.0 15.0 15.0 15.0 15.0 15.0 15.0 7.2 7.0 6.5